Weather History for KCSV - March, 2014

Change the Weather History Date:

Monday, March 31, 2014

  Actual Average Record
Temperature  
Mean Temperature 51 °F 51 °F  
Max Temperature 71 °F 62 °F 81 °F (1963)
Min Temperature 30 °F 41 °F 21 °F (1964)
Degree Days  
Heating Degree Days 14    
Month to date heating degree days 636  
Since 1 July heating degree days 4177  
Cooling Degree Days 0    
Month to date cooling degree days 0  
Year to date cooling degree days 0  
Moisture  
Dew Point 23 °F    
Average Humidity 49    
Maximum Humidity 85    
Minimum Humidity 12    
Precipitation  
Precipitation 0.00 in 0.18 in 1.50 in (2002)
Month to date precipitation 2.99 4.98  
Year to date precipitation 8.65 14.20  
Sea Level Pressure  
Sea Level Pressure 30.13 in    
Wind  
Wind Speed 3 mph (SSE)    
Max Wind Speed 9 mph    
Max Gust Speed 14 mph    
Visibility 10 miles    
Events      
T = Trace of Precipitation, MM = Missing Value Source: NWS Daily Summary

Daily Weather History Graph

Daily Weather History Graph

Search for Another Location

Airport or City:

Trip Planner

Search our weather history database for the weather conditions in past years. The results will help you decide how hot, cold, wet, or windy it might be!

Date:

Astronomy

Mar. 31, 2014 Rise Set
Actual Time 6:28 AM CDT 7:01 PM CDT
Civil Twilight 6:02 AM CDT 7:27 PM CDT
Nautical Twilight 5:32 AM CDT 7:57 PM CDT
Astronomical Twilight 5:01 AM CDT 8:28 PM CDT
Moon 6:52 AM CDT (3/31) 8:16 PM CDT (3/31)
Length of Visible Light 13h 24m
Length of Day
12h 33m
New Moon, 1% of the Moon is Illuminated
Mar 31
New Moon
Apr 7
First Quarter
Apr 15
Full
Apr 22
Last Quarter
Apr 29
New

Hourly Weather History & Observations

Time (CDT) Temp. Windchill Dew Point Humidity Pressure Visibility Wind Dir Wind Speed Gust Speed Precip Events Conditions
12:53 AM 36.0 °F - 28.9 °F 76% 30.17 in 10.0 mi Calm Calm - N/A   Clear
1:53 AM 34.0 °F - 28.0 °F 79% 30.17 in 10.0 mi Calm Calm - N/A   Clear
2:53 AM 33.1 °F - 27.0 °F 78% 30.17 in 10.0 mi Calm Calm - N/A   Clear
3:53 AM 32.0 °F - 26.1 °F 79% 30.16 in 10.0 mi Calm Calm - N/A   Clear
4:53 AM 32.0 °F - 26.1 °F 79% 30.17 in 10.0 mi Calm Calm - N/A   Clear
5:53 AM 30.0 °F - 26.1 °F 85% 30.18 in 10.0 mi Calm Calm - N/A   Clear
6:53 AM 30.0 °F - 27.0 °F 88% 30.19 in 6.0 mi Calm Calm - N/A   Clear
7:53 AM 39.9 °F 37.8 °F 32.0 °F 73% 30.20 in 10.0 mi ENE 3.5 mph - N/A   Clear
8:53 AM 48.0 °F - 30.0 °F 50% 30.20 in 10.0 mi ESE 5.8 mph - N/A   Clear
9:53 AM 54.0 °F - 27.0 °F 35% 30.19 in 10.0 mi Variable 4.6 mph - N/A   Clear
10:53 AM 60.1 °F - 19.9 °F 21% 30.19 in 10.0 mi SE 4.6 mph - N/A   Clear
11:53 AM 64.0 °F - 19.0 °F 18% 30.17 in 10.0 mi Variable 5.8 mph - N/A   Clear
12:53 PM 66.0 °F - 21.9 °F 19% 30.14 in 10.0 mi SE 5.8 mph - N/A   Clear
1:53 PM 69.1 °F - 19.9 °F 15% 30.12 in 10.0 mi South 6.9 mph - N/A   Clear
2:53 PM 69.1 °F - 16.0 °F 13% 30.11 in 10.0 mi Variable 5.8 mph - N/A   Clear
3:53 PM 71.1 °F - 17.1 °F 13% 30.09 in 10.0 mi South 8.1 mph - N/A   Clear
4:53 PM 69.1 °F - 16.0 °F 13% 30.07 in 10.0 mi Variable 3.5 mph - N/A   Clear
5:53 PM 68.0 °F - 19.0 °F 15% 30.07 in 10.0 mi SE 4.6 mph - N/A   Clear
6:53 PM 64.0 °F - 25.0 °F 23% 30.09 in 10.0 mi SSE 3.5 mph - N/A   Clear
7:53 PM 57.9 °F - 25.0 °F 28% 30.09 in 10.0 mi SSE 3.5 mph - N/A   Clear
8:53 PM 57.0 °F - 23.0 °F 27% 30.09 in 10.0 mi Calm Calm - N/A   Clear
9:53 PM 57.0 °F - 21.0 °F 25% 30.07 in 10.0 mi South 4.6 mph - N/A   Clear
10:53 PM 55.0 °F - 19.9 °F 25% 30.06 in 10.0 mi Calm Calm - N/A   Clear
11:53 PM 57.0 °F - 23.0 °F 27% 30.06 in 10.0 mi SW 3.5 mph - N/A   Clear